Tracking 18851 objects as of 25-Nov-2017
HD Live streaming from Space Station
objects crossing your sky now

ORBCOMM FM 40

Track ORBCOMM FM 40 now!
10-day predictions
ORBCOMM FM 40 is classified as:


NORAD ID: 33065
Int'l Code: 2008-031F
Perigee: 652.5 km
Apogee: 663.8 km
Inclination: 48.4 °
Period: 97.7 minutes
Semi major axis: 7029 km
RCS: 1.2449 m2 (large)
Launch date: June 19, 2008
Source: ORBCOMM (ORB)
Launch site: KAPUSTIN YAR MISSILE AND SPACE COMPLEX (KYMTR)

This spacecraft is one of the 5 ORBCOMM satellites launched on Jun 19, 2008 designed to replenish the company's aging constellation.
aabbcc
Your satellite tracking list
Your tracking list is empty




NASA's NSSDC Master Catalog

Two Line Element Set (TLE):
1 33065U 08031F   17328.53084359  .00000092  00000-0  45215-4 0  9999
2 33065  48.4465  36.2494 0008022 142.5903 308.4435 14.73153336506941
Source of the keplerian elements: AFSPC